Billings, MT

2:14 AM MST on November 13, 2019 (GMT -0700)
Billings Logan International

Weather History for KBIL - October, 2019

Change the Weather History Date:

Tuesday, October 22, 2019

  Actual Average Record
Temperature  
Mean Temperature 50 °F 46 °F  
Max Temperature 63 °F 57 °F 80 °F (1939)
Min Temperature 37 °F 35 °F 20 °F (2002)
Degree Days  
Heating Degree Days 15 19  
Month to date heating degree days 450 335  
Since 1 July heating degree days 632 559  
Cooling Degree Days 0 0  
Month to date cooling degree days 0 0  
Year to date cooling degree days 823 633  
Moisture  
Dew Point 30 °F    
Average Humidity 55    
Maximum Humidity 76    
Minimum Humidity 27    
Precipitation  
Precipitation 0.03 in 0.03 in 0.31 in (1975)
Month to date precipitation 0.47 0.92  
Year to date precipitation 17.63 12.27  
Snow  
Snow 0.00 in 0.20 in 4.00 in (1955)
Month to date snowfall 6.2 2.8  
Since 1 July snowfall 6.3 3.9  
Since 1 September snowfall 6.3 3.9  
Snow Depth 0.00 in    
Sea Level Pressure  
Sea Level Pressure 29.93 in    
Wind  
Wind Speed 14 mph ()    
Max Wind Speed 51 mph    
Max Gust Speed 66 mph    
Visibility 10.0 miles    
Events Rain    
T = Trace of Precipitation, MM = Missing Value Source: Averaged Metar Reports

Daily Weather History Graph

Daily Weather History Graph

Search for Another Location

Airport or City:

Astronomy

Oct. 22, 2019 Rise Set
Actual Time 7:40 AM MDT 6:16 PM MDT
Civil Twilight 7:09 AM MDT 6:46 PM MDT
Nautical Twilight 6:34 AM MDT 7:21 PM MDT
Astronomical Twilight 6:00 AM MDT 7:55 PM MDT
Moon 12:27 AM MDT (10/22) 3:51 PM MDT (10/22)
Length of Visible Light 11h 37m
Length of Day
10h 36m
Last Quarter, 36% of the Moon is Illuminated
Oct 22
Last Quarter
Oct 27
New
Nov 4
First Quarter
Nov 12
Full
Nov 19
Last Quarter

Hourly Weather History & Observations

Time (MDT) Temp. Windchill Dew Point Humidity Pressure Visibility Wind Dir Wind Speed Gust Speed Precip Events Conditions
1:53 AM 41.0 °F 34.3 °F 26.1 °F 55% 30.11 in 10.0 mi WNW 11.5 mph - N/A   Partly Cloudy
2:53 AM 39.9 °F 32.9 °F 25.0 °F 55% 30.10 in 10.0 mi NW 11.5 mph - N/A   Clear
3:53 AM 39.9 °F 32.9 °F 25.0 °F 55% 30.09 in 10.0 mi WNW 11.5 mph - N/A   Mostly Cloudy
4:53 AM 37.9 °F 31.5 °F 26.1 °F 62% 30.08 in 10.0 mi SW 9.2 mph - N/A   Mostly Cloudy
5:53 AM 41.0 °F 36.4 °F 26.1 °F 55% 30.06 in 10.0 mi West 6.9 mph - N/A   Overcast
7:53 AM 41.0 °F 32.8 °F 27.0 °F 57% 30.03 in 10.0 mi WSW 16.1 mph - N/A   Overcast
8:53 AM 42.1 °F 34.9 °F 27.0 °F 55% 30.01 in 10.0 mi WSW 13.8 mph - N/A   Overcast
9:53 AM 43.0 °F 35.4 °F 28.0 °F 56% 29.98 in 10.0 mi WSW 16.1 mph - N/A   Overcast
10:53 AM 44.1 °F 36.8 °F 30.0 °F 58% 29.95 in 10.0 mi SW 16.1 mph - N/A   Overcast
11:53 AM 44.1 °F 35.7 °F 35.1 °F 71% 29.94 in 10.0 mi WSW 20.7 mph - 0.00 in Rain Light Rain
12:53 PM 43.0 °F 34.5 °F 36.0 °F 76% 29.89 in 10.0 mi WSW 19.6 mph - 0.03 in   Overcast
1:53 PM 48.9 °F - 37.0 °F 64% 29.84 in 10.0 mi WSW 20.7 mph - N/A   Mostly Cloudy
2:53 PM 53.1 °F - 35.1 °F 50% 29.82 in 10.0 mi SW 19.6 mph 27.6 mph N/A   Scattered Clouds
3:53 PM 61.0 °F - 33.1 °F 35% 29.74 in 10.0 mi West 26.5 mph 32.2 mph N/A   Scattered Clouds
4:08 PM 62.1 °F - 30.0 °F 30% 29.75 in 10.0 mi West 28.8 mph 40.3 mph N/A   Scattered Clouds
4:53 PM 62.1 °F - 28.9 °F 29% 29.73 in 10.0 mi West 26.5 mph 42.6 mph N/A   Scattered Clouds
5:53 PM 59.0 °F - 27.0 °F 29% 29.73 in 10.0 mi WNW 24.2 mph 40.3 mph N/A   Overcast
6:53 PM 51.1 °F - 35.1 °F 54% 29.82 in 10.0 mi NW 24.2 mph 36.8 mph 0.00 in Rain Rain
7:53 PM 44.1 °F 34.4 °F 34.0 °F 68% 29.91 in 10.0 mi NW 27.6 mph 38.0 mph 0.00 in Rain Light Rain
8:53 PM 45.0 °F 35.8 °F 32.0 °F 60% 29.89 in 10.0 mi WNW 26.5 mph 34.5 mph 0.00 in   Overcast
9:53 PM 43.0 °F 36.0 °F 32.0 °F 65% 29.95 in 10.0 mi NNW 13.8 mph 23.0 mph N/A   Scattered Clouds
10:53 PM 43.0 °F 38.8 °F 32.0 °F 65% 29.97 in 10.0 mi West 6.9 mph - N/A   Mostly Cloudy
11:53 PM 43.0 °F 36.4 °F 32.0 °F 65% 29.99 in 10.0 mi WNW 12.7 mph - N/A   Mostly Cloudy